User: anonymous   Login
Location: Athabasca
(54.7194°N, 113.2858°W)
Time: 03:39:36
(UTC+00:00)
Language:

MOZHAYETS 4 - Orbit

View from above orbital plane
View from above orbital plane
View from above satellite
View from above satellite

Ground track
Ground track

The orbit data is extracted from the following two-line orbital elements,

1 27939U 03042A   23340.77282368  .00001509  00000-0  26548-3 0  9997
2 27939  98.2649 129.3627 0011464 315.3536 151.5473 14.69062673 79873
Epoch (UTC): 06 December 2023 18:32:51
Eccentricity: 0.0011464
inclination: 98.2649°
perigee height: 656 km
apogee height: 672 km
right ascension of ascending node: 129.3627°
argument of perigee: 315.3536°
revolutions per day: 14.69062673
mean anomaly at epoch: 151.5473°
orbit number at epoch: 7987

The dashed part of the orbit path shows where the satellite is in the earth's shadow,  

DLR